Location: Newark
(43.6583°N, 1.6617°E)
Time: 10:03:52
(UTC+00:00)

Vanguard 2 Rocket - Pass Details

Date: 28 August 2019
Orbit: 554 x 3327 km, 32.9° (Epoch: 16 September)

Event Time Altitude Azimuth Distance (km) Brightness Sun altitude
Exits shadow 04:39:03 - 262° (W) 4,759 9.9 -6.5°
Reaches altitude 10° 04:40:11 10° 260° (W) 4,511 9.8 -6.3°
Maximum altitude 04:53:15 54° 189° (S) 3,258 9.6 -4.1°
Drops below altitude 10° 05:12:07 10° 120° (ESE) 6,281 11.9 -0.8°
Sets 05:17:13 0° 116° (ESE) 7,286 12.4 0.1°
